Location: São Paulo
(23.5507°S, 46.6334°W)
Time: 07:42:46
(UTC-03:00)

Vanguard 3 - Pass Details

Date: 21 February 2026
Orbit: 507 x 3205 km, 33.4° (Epoch: 7 March)

Event Time Altitude Azimuth Distance (km) Brightness Sun altitude
Exits shadow 03:37:32 49° 245° (WSW) 1,854 8.6 -30.9°
Maximum altitude 03:39:58 62° 193° (SSW) 1,828 8.8 -30.5°
Drops below altitude 10° 03:53:52 10° 114° (ESE) 5,236 12.2 -27.6°
Sets 03:58:57 0° 110° (ESE) 6,604 13.1 -26.6°
